Location: Zürich
(47.3769°N, 8.5417°E)
Time: 10:14:47
(UTC+02:00)

ISS - Pass Details

Date: 18 May 2021
Orbit: 417 x 422 km, 51.6° (Epoch: 13 June)

Event Time Altitude Azimuth Distance (km) Brightness Sun altitude
Rises 22:51:57 0° 262° (W) 2,359 0.5 -14.9°
Reaches altitude 10° 22:54:05 10° 268° (W) 1,498 -0.5 -15.1°
Maximum altitude 22:57:22 50° 345° (NNW) 540 -2.8 -15.4°
Drops below altitude 10° 23:00:40 10° 63° (ENE) 1,505 -1.0 -15.7°
Sets 23:02:49 0° 68° (ENE) 2,371 -0.1 -15.9°
